Wind_Speed
2 2 1 1 0 0 1 1 1 1 1 2 2 2 2 3 3 2 2 2 2 2 2 3 3 3 3 3 2 2 2 2 2 3 2 3 4 4 4 5 4 4 3
2 1 0 1 1 1 1 1 1 2 2 2 2 2 2 3 3 3 3 2 2 3 3 3 4 3 3 3 3 3 2 3 3 3 3 3 4 3 4 5 5 5 5
2 2 2 2 2 1 1 2 2 2 3 3 3 3 3 2 2 2 3 3 3 3 3 4 4 4 4 4 3 3 3 3 3 3 3 3 4 4 4 5 5 5 5
3 2 2 2 2 2 2 3 3 3 3 3 3 3 4 4 3 3 3 3 3 3 4 4 4 5 5 5 4 4 4 3 3 3 3 3 4 4 4 5 5 5 6
3 3 3 3 3 3 4 4 4 4 4 4 3 4 4 5 4 4 4 4 4 4 5 5 5 5 6 6 5 5 4 4 4 4 3 4 4 4 4 5 5 6 6
4 4 4 5 5 4 5 5 5 5 5 4 4 4 5 5 5 5 6 5 5 5 5 5 5 5 5 6 6 5 5 5 5 5 5 5 5 4 5 5 6 7 7
5 5 5 5 5 5 5 5 5 6 6 6 5 5 5 6 6 6 6 6 6 6 6 6 6 6 6 6 6 6 6 6 6 6 6 6 6 6 6 6 7 7 8
7 6 6 5 6 6 6 6 7 7 6 6 6 5 6 6 6 6 6 6 6 6 6 6 7 7 7 7 7 7 7 6 6 6 6 6 7 7 7 7 7 8 8
7 6 7 6 7 7 7 7 8 8 7 7 6 6 7 7 6 6 7 6 5 6 6 7 7 7 7 8 8 8 8 8 8 7 7 6 6 7 7 8 8 8 9
7 7 7 7 7 7 8 8 8 8 7 6 6 6 7 7 7 6 6 6 6 6 6 6 7 7 8 8 8 8 8 9 9 8 8 7 7 7 8 8 8 8 9
7 7 7 7 7 7 7 7 7 7 6 6 6 6 6 7 7 6 6 6 6 6 7 7 7 7 8 8 8 8 9 9 9 9 8 8 8 8 8 8 9 9 9
7 7 7 7 8 8 7 7 7 7 7 7 7 6 6 7 7 6 7 7 7 8 7 7 7 8 8 8 8 9 9 9 9 9 9 9 8 8 8 8 9 9 10
7 8 7 7 7 7 8 8 8 8 8 8 7 7 7 6 6 7 7 8 8 8 8 8 8 8 8 8 8 9 9 9 9 9 9 9 9 9 9 9 9 9 9
7 7 7 7 7 8 8 8 8 8 8 8 8 7 6 6 7 7 8 8 8 8 8 8 8 8 8 8 8 8 8 8 9 9 10 10 10 9 9 9 8 9 9
7 7 7 7 7 7 7 8 8 8 7 8 8 8 8 8 8 8 9 8 8 8 8 9 8 8 8 8 8 8 8 8 8 9 9 10 10 9 9 8 8 8 8
6 7 7 7 7 7 7 7 7 8 7 8 8 9 9 9 9 9 9 9 9 9 9 9 9 8 8 8 8 8 8 8 8 8 9 9 10 10 9 9 9 9 9
5 5 6 6 6 6 7 7 7 8 8 8 8 9 9 9 9 9 9 9 9 9 9 9 9 9 8 8 8 8 8 8 8 9 9 9 9 9 9 9 10 10 10
5 5 6 6 6 6 6 7 7 8 8 9 9 8 8 8 8 9 9 10 9 9 10 9 9 9 9 9 9 9 9 9 9 9 9 9 9 10 10 10 10 11 11
6 6 6 6 6 6 6 7 8 8 8 8 8 7 8 8 8 8 9 9 10 10 10 9 9 9 9 9 9 9 9 9 9 10 10 10 10 10 10 11 11 11 11
5 5 5 5 6 6 6 7 7 7 7 7 7 7 8 8 9 8 8 9 9 10 10 10 10 10 10 10 10 9 9 10 10 11 11 11 11 11 11 11 12 12 12
4 4 5 5 5 6 6 6 6 7 6 6 7 7 8 8 8 9 9 9 9 9 10 10 10 10 10 10 10 9 9 10 11 11 11 11 11 11 11 12 12 12 13
5 5 5 6 6 6 6 6 6 7 7 7 7 8 8 8 8 8 9 9 10 10 10 10 10 10 10 10 10 10 10 11 11 11 11 12 12 12 12 12 12 12 13
6 6 6 6 7 7 7 7 7 7 8 7 8 8 8 8 9 9 9 10 10 10 10 10 10 10 10 10 10 11 11 12 11 12 12 12 13 13 13 13 13 13 13
6 6 6 6 7 7 7 7 7 7 7 7 8 8 9 9 9 9 9 9 9 9 10 10 11 11 11 11 11 11 12 12 12 12 12 13 13 13 13 14 14 14 14
7 7 7 7 7 7 7 7 7 7 7 7 8 8 9 9 9 9 9 9 9 9 10 10 11 11 11 12 12 12 12 13 13 13 13 13 13 14 14 14 15 15 15
7 7 7 7 7 8 8 8 8 8 8 8 9 9 9 9 10 10 10 10 10 10 10 11 11 11 11 12 12 12 13 14 14 14 13 14 14 15 15 15 15 15 15
Wind_Direction
144 129 124 102 114 57 314 301 254 238 252 267 287 299 302 294 300 308 297 272 250 240 233 230 223 213 217 215 210 213 219 225 237 234 232 222 219 213 214 218 226 228 226
182 190 223 234 245 294 302 303 271 257 261 271 276 286 291 288 286 288 283 270 262 254 240 235 228 227 226 227 226 228 236 241 245 241 235 225 225 226 230 232 234 240 239
205 222 250 264 254 264 278 288 277 265 259 269 271 274 274 272 285 293 287 281 271 254 248 244 239 235 237 241 240 242 252 260 247 246 239 231 235 239 238 238 241 244 240
230 231 246 265 255 256 274 283 279 268 265 270 267 270 269 263 270 284 289 287 279 263 262 254 248 241 245 247 249 250 252 256 250 250 252 250 253 247 245 248 250 249 244
244 244 255 264 266 265 270 278 282 279 272 267 257 273 275 268 266 277 282 290 283 275 269 263 252 247 248 250 253 254 255 254 253 253 258 261 262 255 256 254 250 251 244
258 257 262 267 266 266 270 278 282 283 281 275 270 273 279 276 265 267 274 281 279 279 274 265 259 250 254 252 251 255 257 258 256 259 263 266 267 264 262 256 253 252 247
264 262 261 264 267 265 270 279 281 277 273 272 270 272 278 278 266 267 272 276 274 270 266 262 260 257 258 258 256 257 258 256 255 258 261 263 265 268 265 258 258 255 252
265 264 263 266 268 270 275 275 278 275 270 271 273 280 280 276 266 268 269 276 278 271 263 262 259 261 262 259 261 263 259 256 255 259 262 263 265 267 264 261 259 256 255
263 267 266 269 270 272 274 274 275 273 271 268 274 275 276 272 270 273 271 271 275 277 273 268 263 263 262 262 261 262 261 259 259 264 265 264 266 265 260 259 259 257 255
268 266 266 267 274 275 272 272 278 275 270 270 276 275 273 268 270 269 266 267 269 271 274 271 264 262 264 265 264 261 261 260 261 263 264 265 266 265 262 263 259 256 258
268 264 265 264 271 273 274 276 276 280 274 275 276 276 275 272 269 264 262 263 265 270 272 269 264 265 266 268 269 267 263 262 262 262 264 265 264 267 269 266 263 261 262
267 265 265 267 272 276 278 280 279 284 280 278 277 277 278 276 272 261 259 263 268 271 272 272 270 269 267 267 267 267 265 265 264 262 262 265 263 264 270 271 270 266 264
267 265 265 265 271 278 280 281 279 277 277 273 272 274 275 274 272 266 260 264 271 273 274 274 272 271 269 266 265 265 266 264 265 262 260 264 264 265 268 271 269 268 269
266 262 264 268 270 275 279 282 278 276 272 268 268 273 272 271 272 270 266 267 270 275 276 274 274 273 271 274 272 269 270 270 266 263 261 261 264 267 270 270 272 271 270
258 263 260 264 268 275 279 282 279 279 271 267 269 269 266 266 267 270 267 269 270 274 277 274 272 272 271 272 272 271 272 274 272 267 264 264 264 266 270 271 273 271 269
264 261 261 266 269 276 280 281 283 283 280 271 270 269 264 263 267 268 267 269 270 273 273 273 272 269 266 269 274 275 274 274 274 270 267 268 266 266 269 271 271 270 268
277 270 269 272 270 270 272 276 280 285 281 277 272 271 268 268 268 270 268 269 270 269 270 270 271 269 269 269 272 275 276 278 276 273 271 270 270 270 270 271 271 272 271
284 282 277 278 274 272 272 275 278 283 283 280 277 273 270 267 267 269 272 271 268 269 272 273 272 271 272 272 273 274 276 278 277 274 272 273 272 271 270 272 272 273 273
294 291 280 280 282 275 275 279 281 283 285 280 280 276 275 271 274 275 277 275 271 273 274 273 272 273 275 275 274 275 275 275 277 276 274 274 275 273 273 275 274 272 271
308 306 293 289 283 281 284 286 286 286 283 284 284 278 277 276 276 276 277 277 277 277 275 273 272 272 274 275 274 276 277 278 278 276 274 274 276 277 277 278 277 273 272
315 318 310 303 302 296 292 291 289 287 285 287 289 280 279 281 278 275 273 275 277 277 278 275 273 273 275 275 274 278 279 283 282 279 275 274 277 278 278 277 278 276 276
312 308 306 303 299 297 298 294 291 287 280 278 279 279 282 283 281 281 279 278 277 277 279 276 272 272 273 273 277 280 281 282 283 281 277 277 280 280 279 278 280 282 280
304 303 301 300 299 299 299 298 290 286 282 276 279 280 281 286 281 279 278 277 278 279 280 277 273 274 274 276 279 281 282 282 283 283 280 280 282 282 281 279 279 279 280
296 299 298 296 297 298 298 299 293 289 289 283 283 283 283 285 284 282 282 279 277 278 278 275 273 273 274 275 278 281 283 283 284 282 282 282 283 283 282 279 277 276 277
292 293 293 291 292 292 290 291 293 289 287 286 284 284 285 286 286 284 284 285 283 281 279 275 273 272 273 275 278 281 282 283 284 282 281 282 283 285 283 281 279 277 277
289 290 290 291 289 287 288 289 290 289 287 286 286 286 283 283 284 284 285 287 289 286 285 282 277 276 276 277 279 281 283 284 285 283 282 282 283 284 284 282 280 278 277
Height
5889 5888 5888 5887 5887 5887 5887 5887 5887 5887 5887 5886 5886 5886 5885 5885 5885 5884 5883 5883 5882 5882 5882 5882 5882 5882 5882 5882 5882 5882 5882 5881 5881 5881 5881 5881 5881 5881 5881 5881 5881 5881 5881
5888 5888 5888 5887 5887 5887 5887 5887 5887 5887 5886 5886 5886 5886 5885 5885 5884 5884 5883 5883 5882 5882 5882 5882 5882 5882 5882 5882 5882 5882 5881 5881 5881 5880 5880 5880 5881 5880 5880 5880 5880 5880 5880
5888 5888 5887 5887 5887 5887 5887 5887 5886 5886 5886 5886 5885 5885 5885 5884 5884 5884 5883 5882 5882 5882 5881 5881 5881 5881 5881 5881 5881 5881 5881 5881 5880 5880 5880 5880 5880 5880 5879 5880 5880 5879 5879
5887 5887 5887 5887 5887 5887 5887 5886 5886 5886 5885 5885 5885 5885 5884 5884 5883 5883 5883 5882 5882 5881 5881 5880 5880 5881 5881 5881 5881 5880 5880 5880 5880 5879 5879 5879 5879 5879 5879 5879 5879 5879 5879
5887 5886 5886 5886 5886 5886 5886 5886 5885 5885 5885 5885 5884 5884 5884 5883 5883 5882 5882 5881 5881 5880 5880 5880 5880 5880 5880 5880 5880 5879 5879 5879 5879 5879 5878 5878 5878 5878 5877 5877 5877 5877 5878
5886 5886 5886 5885 5885 5885 5885 5885 5885 5884 5884 5884 5883 5883 5883 5882 5882 5881 5881 5880 5880 5879 5879 5879 5879 5879 5879 5879 5879 5878 5878 5878 5878 5878 5877 5877 5877 5877 5876 5876 5876 5876 5876
5884 5884 5884 5884 5884 5884 5884 5884 5884 5883 5883 5882 5882 5882 5881 5881 5880 5880 5880 5879 5879 5878 5878 5878 5878 5878 5878 5878 5878 5877 5877 5877 5877 5877 5876 5876 5876 5875 5875 5875 5875 5875 5875
5883 5883 5883 5883 5883 5883 5883 5883 5882 5882 5882 5881 5881 5881 5880 5880 5879 5879 5879 5878 5878 5877 5877 5877 5877 5877 5876 5876 5876 5876 5876 5876 5875 5875 5875 5875 5874 5874 5874 5874 5873 5873 5873
5882 5882 5882 5882 5882 5882 5881 5881 5881 5880 5880 5880 5880 5879 5879 5878 5878 5877 5877 5877 5877 5876 5876 5876 5876 5875 5875 5875 5875 5875 5874 5874 5874 5874 5874 5873 5873 5872 5872 5872 5872 5872 5871
5880 5880 5880 5880 5880 5880 5880 5880 5879 5879 5879 5878 5878 5877 5877 5877 5876 5876 5876 5876 5875 5875 5875 5874 5874 5874 5874 5874 5873 5873 5873 5873 5873 5873 5872 5872 5872 5871 5871 5870 5870 5870 5870
5879 5879 5879 5879 5879 5878 5878 5878 5878 5877 5877 5877 5876 5876 5876 5875 5875 5874 5874 5874 5874 5874 5873 5873 5873 5872 5872 5872 5872 5871 5871 5871 5871 5871 5871 5870 5870 5870 5869 5869 5868 5868 5868
5877 5877 5877 5877 5877 5877 5876 5876 5876 5875 5875 5875 5875 5875 5874 5874 5873 5873 5873 5873 5872 5872 5872 5872 5871 5871 5870 5870 5870 5870 5869 5869 5869 5869 5869 5869 5868 5868 5867 5867 5867 5866 5865
5876 5876 5876 5875 5875 5875 5875 5874 5874 5874 5874 5873 5873 5873 5873 5872 5872 5871 5871 5871 5871 5870 5870 5870 5870 5869 5869 5869 5868 5868 5867 5867 5867 5867 5867 5867 5866 5866 5866 5865 5865 5864 5864
5875 5874 5874 5874 5873 5873 5873 5873 5872 5872 5872 5871 5871 5871 5871 5871 5870 5870 5870 5869 5869 5869 5869 5868 5868 5868 5867 5867 5866 5866 5866 5865 5865 5865 5865 5865 5864 5864 5864 5863 5863 5862 5862
5873 5873 5873 5872 5872 5871 5871 5871 5870 5870 5870 5870 5869 5869 5869 5869 5869 5868 5868 5868 5867 5867 5867 5867 5866 5866 5865 5865 5864 5864 5864 5863 5863 5863 5863 5863 5862 5862 5862 5861 5861 5860 5860
5871 5871 5870 5870 5870 5870 5869 5869 5869 5868 5868 5868 5868 5867 5867 5867 5867 5867 5866 5866 5865 5865 5865 5865 5864 5864 5864 5863 5863 5862 5862 5861 5861 5861 5861 5860 5860 5860 5859 5859 5859 5858 5858
5869 5869 5868 5868 5868 5868 5867 5867 5867 5866 5866 5866 5865 5865 5865 5865 5865 5864 5864 5864 5863 5863 5863 5862 5862 5862 5862 5861 5861 5860 5860 5859 5859 5859 5858 5858 5858 5857 5857 5857 5856 5856 5856
5867 5867 5867 5866 5866 5866 5865 5865 5865 5864 5864 5863 5863 5863 5863 5863 5862 5862 5861 5861 5861 5861 5860 5860 5860 5860 5859 5859 5859 5858 5858 5857 5857 5856 5856 5855 5855 5855 5855 5854 5854 5853 5853
5866 5865 5865 5865 5864 5864 5864 5863 5863 5862 5862 5861 5861 5860 5860 5860 5860 5859 5859 5859 5859 5858 5858 5858 5858 5857 5857 5857 5856 5856 5855 5855 5855 5854 5853 5853 5853 5852 5852 5852 5851 5851 5850
5864 5864 5863 5863 5862 5862 5862 5861 5861 5860 5860 5859 5859 5858 5858 5858 5858 5857 5857 5857 5856 5856 5856 5855 5855 5855 5855 5854 5854 5854 5853 5853 5852 5852 5851 5850 5850 5850 5849 5849 5848 5848 5847
5863 5862 5862 5861 5861 5861 5860 5859 5859 5858 5858 5857 5857 5857 5856 5856 5855 5855 5855 5854 5854 5854 5853 5853 5852 5852 5852 5852 5852 5851 5851 5850 5850 5849 5848 5848 5847 5847 5846 5846 5845 5845 5844
5861 5861 5860 5860 5859 5859 5858 5858 5857 5857 5856 5856 5855 5854 5854 5854 5853 5853 5852 5852 5852 5851 5851 5850 5850 5850 5849 5849 5849 5849 5848 5848 5847 5846 5846 5845 5844 5844 5843 5843 5842 5842 5841
5860 5859 5859 5858 5858 5857 5856 5856 5855 5855 5854 5854 5853 5852 5852 5851 5851 5850 5850 5850 5849 5848 5848 5847 5847 5847 5847 5847 5846 5846 5846 5845 5844 5843 5843 5842 5841 5841 5840 5840 5839 5838 5838
5859 5858 5857 5857 5856 5855 5855 5854 5853 5853 5852 5851 5851 5850 5850 5849 5849 5848 5848 5847 5847 5846 5845 5845 5845 5844 5844 5844 5843 5843 5843 5842 5841 5840 5840 5839 5838 5837 5837 5836 5835 5835 5834
5857 5856 5855 5855 5854 5854 5853 5852 5851 5850 5850 5849 5849 5848 5848 5847 5847 5846 5846 5845 5844 5843 5843 5842 5842 5842 5841 5841 5840 5839 5839 5838 5838 5837 5836 5836 5835 5834 5833 5832 5832 5831 5831
5854 5854 5853 5853 5852 5852 5851 5850 5849 5848 5848 5847 5846 5846 5845 5845 5844 5844 5843 5842 5841 5841 5840 5839 5839 5839 5838 5837 5837 5836 5835 5834 5834 5833 5833 5832 5831 5830 5829 5828 5828 5827 5827